Time,TemperatureF,DewpointF,PressureIn,WindDirection,WindDirectionDegrees,WindSpeedMPH,WindSpeedGustMPH,Humidity,HourlyPrecipIn,Conditions,Clouds,dailyrainin,SoftwareType,DateUTC
2013-09-20 00:01:00,65.7,64.5,29.64,SW,214,3.1,3.1,96,0.00,,-RA,0.00,VWS V14.01,2013-09-20 05:01:00,
2013-09-20 00:07:00,65.8,65.0,29.64,SSW,208,2.7,5.8,97,0.00,,-RA,0.00,VWS V14.01,2013-09-20 05:07:00,
2013-09-20 00:12:00,65.7,64.8,29.64,SW,234,0.0,0.0,97,0.00,,-RA,0.00,VWS V14.01,2013-09-20 05:12:00,
2013-09-20 00:18:00,65.7,65.1,29.61,West,261,3.1,4.0,98,0.00,,-RA,0.00,VWS V14.01,2013-09-20 05:18:00,
2013-09-20 00:23:00,65.7,65.1,29.61,South,175,2.2,3.1,98,0.00,,-RA,0.00,VWS V14.01,2013-09-20 05:23:00,
2013-09-20 00:29:00,65.8,65.3,29.61,SW,234,4.0,4.0,98,0.00,,-RA,0.00,VWS V14.01,2013-09-20 05:29:00,
2013-09-20 00:34:00,65.8,65.3,29.61,SSW,192,3.6,4.0,98,0.00,,-RA,0.00,VWS V14.01,2013-09-20 05:34:00,
2013-09-20 00:39:00,65.8,65.3,29.61,SSW,198,3.1,5.4,98,0.00,,-RA,0.00,VWS V14.01,2013-09-20 05:39:00,
2013-09-20 00:45:00,65.8,65.3,29.61,SSW,208,3.6,5.8,98,0.00,,-RA,0.00,VWS V14.01,2013-09-20 05:45:00,
2013-09-20 00:50:00,65.8,65.3,29.61,SW,223,3.6,6.3,98,0.00,,-RA,0.00,VWS V14.01,2013-09-20 05:50:00,
2013-09-20 00:55:00,65.8,65.3,29.61,SW,227,6.3,6.3,98,0.00,,-RA,0.00,VWS V14.01,2013-09-20 05:55:00,
2013-09-20 01:00:00,65.8,65.3,29.61,SSW,212,6.3,7.2,98,0.00,,CLR,0.00,VWS V14.01,2013-09-20 06:00:00,
2013-09-20 01:06:00,65.8,65.3,29.61,SSW,204,5.8,5.8,98,0.00,,CLR,0.00,VWS V14.01,2013-09-20 06:06:00,
2013-09-20 01:11:00,66.0,65.4,29.61,SW,222,5.4,8.1,98,0.00,,CLR,0.00,VWS V14.01,2013-09-20 06:11:00,
2013-09-20 01:16:00,66.0,65.4,29.61,SW,225,5.4,8.1,98,0.00,,CLR,0.00,VWS V14.01,2013-09-20 06:16:00,
2013-09-20 01:21:00,66.0,65.4,29.64,WSW,258,5.8,8.7,98,0.00,,CLR,0.00,VWS V14.01,2013-09-20 06:21:00,
2013-09-20 01:26:00,66.0,65.4,29.64,WSW,241,5.4,7.2,98,0.00,,CLR,0.00,VWS V14.01,2013-09-20 06:26:00,
2013-09-20 01:31:00,66.0,65.4,29.64,SW,215,5.8,7.2,98,0.00,,CLR,0.00,VWS V14.01,2013-09-20 06:31:00,
2013-09-20 01:36:00,66.0,65.4,29.61,SW,230,6.3,6.3,98,0.00,,CLR,0.00,VWS V14.01,2013-09-20 06:36:00,
2013-09-20 01:42:00,65.8,65.3,29.61,SW,225,5.4,5.8,98,0.00,,CLR,0.00,VWS V14.01,2013-09-20 06:42:00,
2013-09-20 01:47:00,65.8,65.3,29.64,SSW,196,5.4,7.6,98,0.00,,CLR,0.00,VWS V14.01,2013-09-20 06:47:00,
2013-09-20 01:53:00,65.8,65.3,29.64,SSW,199,3.1,8.7,98,0.00,,CLR,0.00,VWS V14.01,2013-09-20 06:53:00,
2013-09-20 01:58:00,65.8,65.3,29.64,SW,222,2.7,3.6,98,0.00,,CLR,0.00,VWS V14.01,2013-09-20 06:58:00,
2013-09-20 02:03:00,65.8,65.3,29.64,WSW,250,2.7,3.6,98,0.00,,BKN110,0.00,VWS V14.01,2013-09-20 07:03:00,
2013-09-20 02:08:00,66.0,65.4,29.64,WSW,241,3.1,4.0,98,0.00,,BKN110,0.00,VWS V14.01,2013-09-20 07:08:00,
2013-09-20 02:14:00,66.0,65.4,29.64,West,261,4.0,4.5,98,0.00,,BKN110,0.00,VWS V14.01,2013-09-20 07:14:00,
2013-09-20 02:19:00,66.0,65.4,29.61,SW,223,3.1,6.3,98,0.05,,BKN110,0.05,VWS V14.01,2013-09-20 07:19:00,
2013-09-20 02:24:00,66.0,65.4,29.61,South,178,6.3,6.3,98,0.05,,BKN110,0.05,VWS V14.01,2013-09-20 07:24:00,
2013-09-20 02:29:00,66.0,65.4,29.61,SW,233,2.2,3.6,98,0.05,,BKN110,0.05,VWS V14.01,2013-09-20 07:29:00,
2013-09-20 02:35:00,66.2,65.6,29.61,SSW,196,3.1,4.9,98,0.05,,BKN110,0.05,VWS V14.01,2013-09-20 07:35:00,
2013-09-20 02:41:00,66.2,65.6,29.61,WSW,251,3.6,4.0,98,0.05,,BKN110,0.05,VWS V14.01,2013-09-20 07:41:00,
2013-09-20 02:46:00,66.4,65.8,29.61,SW,226,6.3,6.3,98,0.05,,BKN110,0.05,VWS V14.01,2013-09-20 07:46:00,
2013-09-20 02:52:00,66.4,65.8,29.61,SW,234,5.4,5.8,98,0.05,,BKN110,0.05,VWS V14.01,2013-09-20 07:52:00,
2013-09-20 02:58:00,66.4,65.8,29.61,SW,221,4.0,4.0,98,0.05,,BKN110,0.05,VWS V14.01,2013-09-20 07:58:00,
2013-09-20 03:03:00,66.6,66.0,29.61,WSW,241,4.0,6.7,98,0.05,,OVC005,0.05,VWS V14.01,2013-09-20 08:03:00,
2013-09-20 03:09:00,66.6,66.0,29.61,WSW,257,5.4,8.3,98,0.05,,OVC005,0.05,VWS V14.01,2013-09-20 08:09:00,
2013-09-20 03:14:00,66.6,66.0,29.61,SW,225,2.7,5.8,98,0.05,,OVC005,0.05,VWS V14.01,2013-09-20 08:14:00,
2013-09-20 03:20:00,66.6,66.0,29.58,SSW,210,2.7,3.6,98,0.00,,OVC005,0.05,VWS V14.01,2013-09-20 08:20:00,
2013-09-20 03:26:00,66.6,66.0,29.58,WSW,243,0.0,0.0,98,0.00,,OVC005,0.05,VWS V14.01,2013-09-20 08:26:00,
2013-09-20 03:31:00,66.6,66.0,29.58,SSW,207,5.8,5.8,98,0.00,,OVC005,0.05,VWS V14.01,2013-09-20 08:31:00,
2013-09-20 03:36:00,66.6,66.0,29.58,WSW,240,3.1,4.0,98,0.00,,OVC005,0.05,VWS V14.01,2013-09-20 08:36:00,
2013-09-20 03:41:00,66.6,66.0,29.58,SW,221,3.6,5.8,98,0.00,,OVC005,0.05,VWS V14.01,2013-09-20 08:41:00,
2013-09-20 03:46:00,66.6,66.0,29.58,WSW,237,3.6,5.8,98,0.00,,OVC005,0.05,VWS V14.01,2013-09-20 08:46:00,
2013-09-20 03:52:00,66.6,66.0,29.58,WSW,256,2.7,3.6,98,0.00,,OVC005,0.05,VWS V14.01,2013-09-20 08:52:00,
2013-09-20 03:58:00,66.6,66.0,29.58,South,191,3.1,4.0,98,0.00,,OVC005,0.05,VWS V14.01,2013-09-20 08:58:00,
2013-09-20 04:03:00,66.7,66.2,29.58,SSW,205,4.0,4.0,98,0.00,,OVC012,0.05,VWS V14.01,2013-09-20 09:03:00,
2013-09-20 04:09:00,66.6,66.0,29.58,WSW,254,4.9,4.9,98,0.00,,OVC012,0.05,VWS V14.01,2013-09-20 09:09:00,
2013-09-20 04:14:00,66.6,66.0,29.58,SW,230,5.4,5.4,98,0.00,,OVC012,0.05,VWS V14.01,2013-09-20 09:14:00,
2013-09-20 04:20:00,66.7,66.2,29.58,SW,215,4.5,6.3,98,0.00,,OVC012,0.05,VWS V14.01,2013-09-20 09:20:00,
2013-09-20 04:25:00,66.7,66.2,29.58,SSW,202,3.1,4.9,98,0.00,,OVC012,0.05,VWS V14.01,2013-09-20 09:25:00,
2013-09-20 04:31:00,66.7,66.2,29.58,SW,229,3.6,5.8,98,0.00,,OVC012,0.05,VWS V14.01,2013-09-20 09:31:00,
2013-09-20 04:36:00,66.6,66.0,29.58,SW,225,5.4,5.4,98,0.00,,OVC012,0.05,VWS V14.01,2013-09-20 09:36:00,
2013-09-20 04:41:00,66.6,66.0,29.58,SW,219,3.1,4.0,98,0.00,,OVC012,0.05,VWS V14.01,2013-09-20 09:41:00,
2013-09-20 04:47:00,66.6,66.0,29.58,SW,223,3.1,4.9,98,0.00,,OVC012,0.05,VWS V14.01,2013-09-20 09:47:00,
2013-09-20 04:52:00,66.6,66.0,29.58,WSW,238,2.7,4.9,98,0.00,,OVC012,0.05,VWS V14.01,2013-09-20 09:52:00,
2013-09-20 04:57:00,66.4,65.8,29.58,SW,234,4.0,6.3,98,0.00,,OVC012,0.05,VWS V14.01,2013-09-20 09:57:00,
2013-09-20 05:02:00,66.4,65.8,29.58,WSW,246,3.1,5.8,98,0.00,,OVC007,0.05,VWS V14.01,2013-09-20 10:02:00,
2013-09-20 05:08:00,66.4,65.8,29.58,SW,236,6.3,6.3,98,0.00,,OVC007,0.05,VWS V14.01,2013-09-20 10:08:00,
2013-09-20 05:13:00,66.2,65.6,29.58,WSW,239,3.6,7.6,98,0.00,,OVC007,0.05,VWS V14.01,2013-09-20 10:13:00,
2013-09-20 05:19:00,66.0,65.4,29.58,SW,219,2.2,3.6,98,0.00,,OVC007,0.05,VWS V14.01,2013-09-20 10:19:00,
2013-09-20 05:25:00,66.0,65.4,29.58,SW,231,5.4,5.4,98,0.00,,OVC007,0.05,VWS V14.01,2013-09-20 10:25:00,
2013-09-20 05:30:00,66.0,65.4,29.58,WSW,241,4.9,7.6,98,0.00,,OVC007,0.05,VWS V14.01,2013-09-20 10:30:00,
2013-09-20 05:35:00,66.0,65.4,29.58,SW,223,4.0,6.3,98,0.00,,OVC007,0.05,VWS V14.01,2013-09-20 10:35:00,
2013-09-20 05:40:00,66.0,65.4,29.58,SW,221,5.4,5.4,98,0.00,,OVC007,0.05,VWS V14.01,2013-09-20 10:40:00,
2013-09-20 05:45:00,66.0,65.4,29.58,NW,317,0.0,6.3,98,0.00,,OVC007,0.05,VWS V14.01,2013-09-20 10:45:00,
2013-09-20 05:51:00,65.8,65.3,29.58,SW,234,3.6,4.9,98,0.00,,OVC007,0.05,VWS V14.01,2013-09-20 10:51:00,
2013-09-20 05:57:00,66.0,65.4,29.58,SW,229,6.3,6.3,98,0.00,,OVC007,0.05,VWS V14.01,2013-09-20 10:57:00,
2013-09-20 06:02:00,66.0,65.4,29.61,SSW,208,3.6,4.9,98,0.00,,BKN100,0.05,VWS V14.01,2013-09-20 11:02:00,
2013-09-20 06:08:00,66.0,65.4,29.61,SSW,194,5.4,5.4,98,0.00,,BKN100,0.05,VWS V14.01,2013-09-20 11:08:00,
2013-09-20 06:13:00,66.0,65.4,29.61,WSW,239,5.4,5.4,98,0.00,,BKN100,0.05,VWS V14.01,2013-09-20 11:13:00,
2013-09-20 06:19:00,66.2,65.6,29.61,SW,220,2.2,3.6,98,0.00,,BKN100,0.05,VWS V14.01,2013-09-20 11:19:00,
2013-09-20 06:24:00,66.2,65.6,29.61,SW,234,0.0,0.0,98,0.00,,BKN100,0.05,VWS V14.01,2013-09-20 11:24:00,
2013-09-20 06:29:00,66.2,65.6,29.61,SSW,212,2.7,4.0,98,0.00,,BKN100,0.05,VWS V14.01,2013-09-20 11:29:00,
2013-09-20 06:35:00,66.2,65.6,29.61,NW,308,0.0,3.1,98,0.00,,BKN100,0.05,VWS V14.01,2013-09-20 11:35:00,
2013-09-20 06:40:00,66.2,65.6,29.61,WNW,288,0.0,3.1,98,0.00,,BKN100,0.05,VWS V14.01,2013-09-20 11:40:00,
2013-09-20 06:46:00,66.2,65.6,29.61,SSW,211,0.0,3.6,98,0.00,,BKN100,0.05,VWS V14.01,2013-09-20 11:46:00,
2013-09-20 06:51:00,66.2,65.6,29.61,SSW,209,0.0,0.0,98,0.00,,BKN100,0.05,VWS V14.01,2013-09-20 11:51:00,
2013-09-20 06:57:00,66.2,65.6,29.61,SSW,209,2.2,2.7,98,0.00,,BKN100,0.05,VWS V14.01,2013-09-20 11:57:00,
2013-09-20 07:03:00,66.2,65.6,29.61,SW,214,0.0,2.7,98,0.00,,OVC013,0.05,VWS V14.01,2013-09-20 12:03:00,
2013-09-20 07:08:00,66.2,65.6,29.61,West,268,0.0,0.0,98,0.00,,OVC013,0.05,VWS V14.01,2013-09-20 12:08:00,
2013-09-20 07:14:00,66.0,65.4,29.61,SSW,204,4.0,4.0,98,0.05,,OVC013,0.11,VWS V14.01,2013-09-20 12:14:00,
2013-09-20 07:19:00,66.0,65.4,29.61,West,281,0.0,2.7,98,0.05,,OVC013,0.11,VWS V14.01,2013-09-20 12:19:00,
2013-09-20 07:25:00,66.0,65.4,29.61,SW,216,0.0,0.0,98,0.05,,OVC013,0.11,VWS V14.01,2013-09-20 12:25:00,
2013-09-20 07:30:00,66.0,65.4,29.61,South,189,2.2,5.8,98,0.05,,OVC013,0.11,VWS V14.01,2013-09-20 12:30:00,
2013-09-20 07:36:00,66.0,65.4,29.64,SW,223,0.0,2.7,98,0.05,,OVC013,0.11,VWS V14.01,2013-09-20 12:36:00,
2013-09-20 07:42:00,66.2,65.6,29.64,SSW,212,3.1,3.6,98,0.05,,OVC013,0.11,VWS V14.01,2013-09-20 12:42:00,
2013-09-20 07:47:00,66.0,65.4,29.64,SSW,207,4.9,5.4,98,0.05,,OVC013,0.11,VWS V14.01,2013-09-20 12:47:00,
2013-09-20 07:53:00,66.0,65.4,29.64,WNW,288,0.0,4.0,98,0.05,,OVC013,0.11,VWS V14.01,2013-09-20 12:53:00,
2013-09-20 07:58:00,65.8,65.3,29.64,East,84,2.7,3.1,98,0.05,,OVC013,0.11,VWS V14.01,2013-09-20 12:58:00,
2013-09-20 08:03:00,65.8,65.3,29.64,WSW,238,3.1,4.9,98,0.05,,-RA,0.11,VWS V14.01,2013-09-20 13:03:00,
2013-09-20 08:08:00,65.8,65.3,29.64,SSW,198,2.7,3.6,98,0.05,,-RA,0.11,VWS V14.01,2013-09-20 13:08:00,
2013-09-20 08:13:00,65.8,65.3,29.64,SSW,205,2.7,3.6,98,0.00,,-RA,0.11,VWS V14.01,2013-09-20 13:13:00,
2013-09-20 08:18:00,65.7,65.1,29.64,NNE,23,0.0,0.0,98,0.00,,-RA,0.11,VWS V14.01,2013-09-20 13:18:00,
2013-09-20 08:24:00,65.7,65.1,29.64,WNW,298,0.0,4.0,98,0.00,,-RA,0.11,VWS V14.01,2013-09-20 13:24:00,
2013-09-20 08:29:00,65.7,65.1,29.64,NNW,335,0.0,5.4,98,0.00,,-RA,0.11,VWS V14.01,2013-09-20 13:29:00,
2013-09-20 08:35:00,65.5,64.9,29.64,NNE,16,3.1,5.8,98,0.00,,-RA,0.11,VWS V14.01,2013-09-20 13:35:00,
2013-09-20 08:40:00,65.5,64.9,29.64,SSE,165,0.0,5.4,98,0.00,,-RA,0.11,VWS V14.01,2013-09-20 13:40:00,
2013-09-20 08:46:00,65.5,64.9,29.64,South,190,3.6,6.3,98,0.00,,-RA,0.11,VWS V14.01,2013-09-20 13:46:00,
2013-09-20 08:51:00,65.5,64.9,29.64,SSW,205,0.0,2.7,98,0.00,,-RA,0.11,VWS V14.01,2013-09-20 13:51:00,
2013-09-20 08:57:00,65.3,64.7,29.64,WSW,258,0.0,4.0,98,0.00,,-RA,0.11,VWS V14.01,2013-09-20 13:57:00,
2013-09-20 09:02:00,65.5,64.9,29.64,South,182,6.3,7.2,98,0.00,,OVC014,0.11,VWS V14.01,2013-09-20 14:02:00,
2013-09-20 09:07:00,65.5,64.0,29.64,SSW,208,3.6,6.3,95,0.00,,OVC014,0.11,VWS V14.01,2013-09-20 14:07:00,
2013-09-20 09:13:00,65.3,62.3,29.64,North,357,3.1,4.0,90,0.00,,OVC014,0.11,VWS V14.01,2013-09-20 14:13:00,
2013-09-20 09:18:00,65.3,59.7,29.64,SSW,213,3.1,5.8,82,0.00,,OVC014,0.11,VWS V14.01,2013-09-20 14:18:00,
2013-09-20 09:24:00,65.5,57.4,29.64,WNW,287,0.0,5.4,75,0.00,,OVC014,0.11,VWS V14.01,2013-09-20 14:24:00,
2013-09-20 09:29:00,65.8,54.2,29.64,WSW,250,6.3,6.3,66,0.00,,OVC014,0.11,VWS V14.01,2013-09-20 14:29:00,
2013-09-20 09:35:00,66.4,55.1,29.64,SSW,213,5.8,5.8,67,0.00,,OVC014,0.11,VWS V14.01,2013-09-20 14:35:00,
2013-09-20 09:41:00,66.2,50.5,29.64,SW,226,5.8,8.1,57,0.00,,OVC014,0.11,VWS V14.01,2013-09-20 14:41:00,
2013-09-20 09:46:00,66.4,51.2,29.64,SW,234,4.0,5.4,58,0.00,,OVC014,0.11,VWS V14.01,2013-09-20 14:46:00,
2013-09-20 09:52:00,66.4,48.2,29.64,North,357,2.2,5.8,52,0.00,,OVC014,0.11,VWS V14.01,2013-09-20 14:52:00,
2013-09-20 09:57:00,66.4,49.7,29.64,WSW,256,3.1,5.4,55,0.00,,OVC014,0.11,VWS V14.01,2013-09-20 14:57:00,
2013-09-20 10:02:00,66.4,48.8,29.67,WNW,293,4.9,8.7,53,0.00,,SCT020,0.11,VWS V14.01,2013-09-20 15:02:00,
2013-09-20 10:07:00,66.6,47.9,29.67,SW,221,5.4,6.3,51,0.00,,SCT020,0.11,VWS V14.01,2013-09-20 15:07:00,
2013-09-20 10:13:00,66.6,47.9,29.67,WSW,254,3.6,6.3,51,0.00,,SCT020,0.11,VWS V14.01,2013-09-20 15:13:00,
2013-09-20 10:19:00,66.4,45.6,29.67,NNW,332,6.3,6.3,47,0.00,,SCT020,0.11,VWS V14.01,2013-09-20 15:19:00,
2013-09-20 10:24:00,66.6,45.7,29.67,NNE,33,5.4,5.8,47,0.00,,SCT020,0.11,VWS V14.01,2013-09-20 15:24:00,
2013-09-20 10:30:00,66.6,45.7,29.67,NNW,332,5.8,6.3,47,0.00,,SCT020,0.11,VWS V14.01,2013-09-20 15:30:00,
2013-09-20 10:36:00,66.7,45.9,29.64,SSW,195,3.1,5.4,47,0.00,,SCT020,0.11,VWS V14.01,2013-09-20 15:36:00,
2013-09-20 10:41:00,66.9,45.5,29.64,North,353,7.6,7.6,46,0.00,,SCT020,0.11,VWS V14.01,2013-09-20 15:41:00,
2013-09-20 10:46:00,67.1,46.2,29.64,North,357,0.0,2.7,47,0.00,,SCT020,0.11,VWS V14.01,2013-09-20 15:46:00,
2013-09-20 10:52:00,67.6,47.3,29.64,West,277,0.0,3.1,48,0.00,,SCT020,0.11,VWS V14.01,2013-09-20 15:52:00,
2013-09-20 10:57:00,67.6,45.6,29.64,SSW,200,4.9,7.6,45,0.00,,SCT020,0.11,VWS V14.01,2013-09-20 15:57:00,
2013-09-20 11:02:00,67.8,44.5,29.64,SW,235,5.4,6.3,43,0.00,,SCT018,0.11,VWS V14.01,2013-09-20 16:02:00,
2013-09-20 11:08:00,68.0,42.1,29.64,SSW,210,9.2,9.2,39,0.00,,SCT018,0.11,VWS V14.01,2013-09-20 16:08:00,
2013-09-20 11:13:00,68.0,42.8,29.64,WNW,285,5.4,7.6,40,0.00,,SCT018,0.11,VWS V14.01,2013-09-20 16:13:00,
2013-09-20 11:19:00,68.0,40.8,29.64,WSW,241,8.1,10.1,37,0.00,,SCT018,0.11,VWS V14.01,2013-09-20 16:19:00,
2013-09-20 11:24:00,68.2,40.9,29.64,WNW,290,3.6,5.4,37,0.00,,SCT018,0.11,VWS V14.01,2013-09-20 16:24:00,
2013-09-20 11:29:00,68.0,39.3,29.64,SSW,208,4.0,8.7,35,0.00,,SCT018,0.11,VWS V14.01,2013-09-20 16:29:00,
2013-09-20 11:34:00,68.0,38.6,29.64,West,275,10.5,11.0,34,0.00,,SCT018,0.11,VWS V14.01,2013-09-20 16:34:00,
2013-09-20 11:39:00,68.0,38.6,29.64,SSW,196,6.7,8.7,34,0.00,,SCT018,0.11,VWS V14.01,2013-09-20 16:39:00,
2013-09-20 11:44:00,68.2,39.5,29.64,NNW,346,0.0,6.3,35,0.00,,SCT018,0.11,VWS V14.01,2013-09-20 16:44:00,
2013-09-20 11:50:00,68.4,38.9,29.64,WSW,253,2.7,5.4,34,0.00,,SCT018,0.11,VWS V14.01,2013-09-20 16:50:00,
2013-09-20 11:55:00,68.4,38.9,29.64,SW,224,12.3,12.3,34,0.00,,SCT018,0.11,VWS V14.01,2013-09-20 16:55:00,
2013-09-20 12:01:00,68.5,39.1,29.64,SW,225,3.1,8.3,34,0.00,,SCT025,0.11,VWS V14.01,2013-09-20 17:01:00,
2013-09-20 12:06:00,68.7,40.7,29.64,West,267,2.7,2.7,36,0.00,,SCT025,0.11,VWS V14.01,2013-09-20 17:06:00,
2013-09-20 12:11:00,68.9,40.9,29.64,SSW,200,5.8,6.3,36,0.00,,SCT025,0.11,VWS V14.01,2013-09-20 17:11:00,
2013-09-20 12:16:00,69.1,39.6,29.64,WSW,248,8.1,8.1,34,0.00,,SCT025,0.11,VWS V14.01,2013-09-20 17:16:00,
2013-09-20 12:21:00,68.7,38.5,29.64,SSW,199,8.7,10.5,33,0.00,,SCT025,0.11,VWS V14.01,2013-09-20 17:21:00,
2013-09-20 12:26:00,68.9,37.8,29.64,SW,230,3.6,7.6,32,0.00,,SCT025,0.11,VWS V14.01,2013-09-20 17:26:00,
2013-09-20 12:31:00,68.9,38.6,29.64,SW,225,6.3,6.3,33,0.00,,SCT025,0.11,VWS V14.01,2013-09-20 17:31:00,
2013-09-20 12:37:00,69.1,38.8,29.64,WSW,250,0.0,5.4,33,0.00,,SCT025,0.11,VWS V14.01,2013-09-20 17:37:00,
2013-09-20 12:43:00,69.3,38.2,29.64,NNE,20,0.0,5.4,32,0.00,,SCT025,0.11,VWS V14.01,2013-09-20 17:43:00,
2013-09-20 12:48:00,69.1,38.0,29.64,WSW,251,3.6,8.7,32,0.00,,SCT025,0.11,VWS V14.01,2013-09-20 17:48:00,
2013-09-20 12:54:00,69.1,39.6,29.64,WSW,245,0.0,0.0,34,0.00,,SCT025,0.11,VWS V14.01,2013-09-20 17:54:00,
2013-09-20 12:59:00,69.1,39.6,29.64,NNW,328,0.0,3.1,34,0.00,,SCT025,0.11,VWS V14.01,2013-09-20 17:59:00,
2013-09-20 13:05:00,68.9,38.6,29.64,West,279,0.0,6.3,33,0.00,,SCT023,0.11,VWS V14.01,2013-09-20 18:05:00,
2013-09-20 13:10:00,68.5,38.3,29.64,WNW,283,5.4,6.3,33,0.00,,SCT023,0.11,VWS V14.01,2013-09-20 18:10:00,
2013-09-20 13:15:00,68.2,38.0,29.64,NNW,329,0.0,7.6,33,0.00,,SCT023,0.11,VWS V14.01,2013-09-20 18:15:00,
2013-09-20 13:20:00,67.8,37.7,29.64,SSW,209,8.3,8.7,33,0.00,,SCT023,0.11,VWS V14.01,2013-09-20 18:20:00,
2013-09-20 13:26:00,67.6,38.3,29.64,WNW,284,3.1,4.9,34,0.00,,SCT023,0.11,VWS V14.01,2013-09-20 18:26:00,
2013-09-20 13:32:00,67.1,37.8,29.64,West,273,8.3,10.5,34,0.00,,SCT023,0.11,VWS V14.01,2013-09-20 18:32:00,
2013-09-20 13:37:00,66.4,37.9,29.64,NNE,24,5.4,7.6,35,0.00,,SCT023,0.11,VWS V14.01,2013-09-20 18:37:00,
2013-09-20 13:42:00,66.0,37.6,29.64,North,353,4.0,8.7,35,0.00,,SCT023,0.11,VWS V14.01,2013-09-20 18:42:00,
2013-09-20 13:47:00,65.5,37.8,29.64,NNW,342,3.6,8.7,36,0.00,,SCT023,0.11,VWS V14.01,2013-09-20 18:47:00,
2013-09-20 13:53:00,65.3,37.7,29.64,South,183,3.6,4.5,36,0.00,,SCT023,0.11,VWS V14.01,2013-09-20 18:53:00,
2013-09-20 13:58:00,65.3,37.0,29.64,SSW,196,2.7,3.1,35,0.00,,SCT023,0.11,VWS V14.01,2013-09-20 18:58:00,
2013-09-20 14:03:00,65.5,37.1,29.64,North,357,0.0,5.4,35,0.00,,BKN043,0.11,VWS V14.01,2013-09-20 19:03:00,
2013-09-20 14:09:00,65.7,37.3,29.64,WNW,290,3.6,6.3,35,0.00,,BKN043,0.11,VWS V14.01,2013-09-20 19:09:00,
2013-09-20 14:14:00,65.7,37.3,29.64,SSW,208,4.9,8.3,35,0.00,,BKN043,0.11,VWS V14.01,2013-09-20 19:14:00,
2013-09-20 14:19:00,65.5,36.4,29.64,WSW,254,6.3,8.7,34,0.00,,BKN043,0.11,VWS V14.01,2013-09-20 19:19:00,
2013-09-20 14:25:00,65.5,38.5,29.64,SSW,213,3.1,6.3,37,0.00,,BKN043,0.11,VWS V14.01,2013-09-20 19:25:00,
2013-09-20 14:30:00,65.5,37.1,29.64,SSW,207,7.6,8.7,35,0.00,,BKN043,0.11,VWS V14.01,2013-09-20 19:30:00,
2013-09-20 14:36:00,65.3,36.2,29.64,WSW,253,7.6,10.5,34,0.00,,BKN043,0.11,VWS V14.01,2013-09-20 19:36:00,
2013-09-20 14:42:00,65.3,37.0,29.64,WSW,244,8.1,8.3,35,0.00,,BKN043,0.11,VWS V14.01,2013-09-20 19:42:00,
2013-09-20 14:47:00,65.5,36.4,29.64,WNW,302,4.0,7.6,34,0.00,,BKN043,0.11,VWS V14.01,2013-09-20 19:47:00,
2013-09-20 14:52:00,65.5,35.6,29.64,South,189,6.3,6.3,33,0.00,,BKN043,0.11,VWS V14.01,2013-09-20 19:52:00,
2013-09-20 14:57:00,65.5,35.6,29.64,SW,221,8.3,8.3,33,0.00,,BKN043,0.11,VWS V14.01,2013-09-20 19:57:00,
2013-09-20 15:03:00,65.3,36.2,29.64,NW,326,2.2,4.5,34,0.00,,BKN046,0.11,VWS V14.01,2013-09-20 20:03:00,
2013-09-20 15:08:00,65.3,35.5,29.64,South,183,5.4,5.4,33,0.00,,BKN046,0.11,VWS V14.01,2013-09-20 20:08:00,
2013-09-20 15:13:00,65.3,35.5,29.64,ESE,107,2.7,3.1,33,0.00,,BKN046,0.11,VWS V14.01,2013-09-20 20:13:00,
2013-09-20 15:19:00,65.3,35.5,29.64,South,188,4.0,5.4,33,0.00,,BKN046,0.11,VWS V14.01,2013-09-20 20:19:00,
2013-09-20 15:25:00,64.9,32.0,29.64,WSW,248,6.3,6.3,29,0.00,,BKN046,0.11,VWS V14.01,2013-09-20 20:25:00,
2013-09-20 15:30:00,64.9,32.8,29.64,SW,227,3.1,6.3,30,0.00,,BKN046,0.11,VWS V14.01,2013-09-20 20:30:00,
2013-09-20 15:35:00,64.9,32.8,29.64,WNW,283,4.9,5.4,30,0.00,,BKN046,0.11,VWS V14.01,2013-09-20 20:35:00,
2013-09-20 15:41:00,64.9,32.8,29.64,North,357,6.3,6.3,30,0.00,,BKN046,0.11,VWS V14.01,2013-09-20 20:41:00,
2013-09-20 15:46:00,64.8,30.9,29.64,NW,325,8.3,8.3,28,0.00,,BKN046,0.11,VWS V14.01,2013-09-20 20:46:00,
2013-09-20 15:52:00,65.5,30.6,29.64,South,181,5.4,7.6,27,0.00,,BKN046,0.11,VWS V14.01,2013-09-20 20:52:00,
2013-09-20 15:57:00,65.7,30.8,29.64,South,170,4.9,4.9,27,0.00,,BKN046,0.11,VWS V14.01,2013-09-20 20:57:00,
2013-09-20 16:03:00,65.8,31.0,29.64,North,353,0.0,5.8,27,0.00,,BKN046,0.11,VWS V14.01,2013-09-20 21:03:00,
2013-09-20 16:08:00,65.7,29.9,29.64,North,7,3.6,5.8,26,0.00,,BKN046,0.11,VWS V14.01,2013-09-20 21:08:00,
2013-09-20 16:14:00,65.7,30.8,29.64,South,185,5.8,5.8,27,0.00,,BKN046,0.11,VWS V14.01,2013-09-20 21:14:00,
2013-09-20 16:20:00,66.0,29.2,29.64,SW,220,4.9,6.3,25,0.00,,BKN046,0.11,VWS V14.01,2013-09-20 21:20:00,
2013-09-20 16:25:00,66.7,29.8,29.64,West,276,8.1,8.1,25,0.00,,BKN046,0.11,VWS V14.01,2013-09-20 21:25:00,
2013-09-20 16:31:00,66.9,29.0,29.64,NE,49,3.6,5.4,24,0.00,,BKN046,0.11,VWS V14.01,2013-09-20 21:31:00,
2013-09-20 16:36:00,66.4,28.5,29.64,North,357,3.6,5.8,24,0.00,,BKN046,0.11,VWS V14.01,2013-09-20 21:36:00,
2013-09-20 16:41:00,66.6,28.7,29.64,WNW,303,5.4,8.7,24,0.00,,BKN046,0.11,VWS V14.01,2013-09-20 21:41:00,
2013-09-20 16:47:00,67.3,29.3,29.64,SW,215,5.8,5.8,24,0.00,,BKN046,0.11,VWS V14.01,2013-09-20 21:47:00,
2013-09-20 16:52:00,67.3,29.3,29.64,SW,235,8.1,8.1,24,0.00,,BKN046,0.11,VWS V14.01,2013-09-20 21:52:00,
2013-09-20 16:57:00,66.0,29.2,29.64,SSW,213,3.1,7.2,25,0.00,,BKN046,0.11,VWS V14.01,2013-09-20 21:57:00,
2013-09-20 17:02:00,65.5,29.7,29.64,WNW,286,3.6,9.2,26,0.00,,BKN043,0.11,VWS V14.01,2013-09-20 22:02:00,
2013-09-20 17:08:00,65.1,29.4,29.64,WNW,303,6.3,6.3,26,0.00,,BKN043,0.11,VWS V14.01,2013-09-20 22:08:00,
2013-09-20 17:13:00,64.8,30.0,29.64,West,278,0.0,5.8,27,0.00,,BKN043,0.11,VWS V14.01,2013-09-20 22:13:00,
2013-09-20 17:19:00,64.4,30.6,29.64,WNW,283,4.0,6.3,28,0.00,,BKN043,0.11,VWS V14.01,2013-09-20 22:19:00,
2013-09-20 17:25:00,64.4,30.6,29.64,NNW,339,3.6,4.0,28,0.00,,BKN043,0.11,VWS V14.01,2013-09-20 22:25:00,
2013-09-20 17:30:00,64.8,30.9,29.64,NNW,336,0.0,4.0,28,0.00,,BKN043,0.11,VWS V14.01,2013-09-20 22:30:00,
2013-09-20 17:36:00,65.5,30.6,29.64,WNW,288,2.2,4.9,27,0.00,,BKN043,0.11,VWS V14.01,2013-09-20 22:36:00,
2013-09-20 17:41:00,65.8,30.0,29.64,WNW,297,2.7,4.0,26,0.00,,BKN043,0.11,VWS V14.01,2013-09-20 22:41:00,
2013-09-20 17:47:00,65.7,28.9,29.64,SW,223,5.8,8.3,25,0.00,,BKN043,0.11,VWS V14.01,2013-09-20 22:47:00,
2013-09-20 17:52:00,64.8,28.1,29.64,SSW,193,3.6,7.6,25,0.00,,BKN043,0.11,VWS V14.01,2013-09-20 22:52:00,
2013-09-20 17:58:00,64.2,28.6,29.64,SW,219,3.6,5.4,26,0.00,,BKN043,0.11,VWS V14.01,2013-09-20 22:58:00,
2013-09-20 18:03:00,63.9,28.3,29.64,SW,236,3.6,5.8,26,0.00,,FEW035,0.11,VWS V14.01,2013-09-20 23:03:00,
2013-09-20 18:08:00,63.7,28.2,29.64,WNW,292,2.2,2.7,26,0.00,,FEW035,0.11,VWS V14.01,2013-09-20 23:08:00,
2013-09-20 18:13:00,63.5,29.0,29.64,SSW,203,0.0,3.6,27,0.00,,FEW035,0.11,VWS V14.01,2013-09-20 23:13:00,
2013-09-20 18:19:00,63.1,29.5,29.64,SSW,203,3.6,5.8,28,0.00,,FEW035,0.11,VWS V14.01,2013-09-20 23:19:00,
2013-09-20 18:24:00,63.0,30.2,29.64,WNW,287,4.0,4.0,29,0.00,,FEW035,0.11,VWS V14.01,2013-09-20 23:24:00,
2013-09-20 18:30:00,62.4,29.8,29.64,SSW,203,3.1,3.6,29,0.00,,FEW035,0.11,VWS V14.01,2013-09-20 23:30:00,
2013-09-20 18:36:00,62.2,29.6,29.67,South,189,4.0,4.0,29,0.00,,FEW035,0.11,VWS V14.01,2013-09-20 23:36:00,
2013-09-20 18:41:00,61.9,30.1,29.67,WNW,286,0.0,3.6,30,0.00,,FEW035,0.11,VWS V14.01,2013-09-20 23:41:00,
2013-09-20 18:47:00,61.7,30.8,29.67,SSW,210,0.0,0.0,31,0.00,,FEW035,0.11,VWS V14.01,2013-09-20 23:47:00,
2013-09-20 18:52:00,61.3,31.2,29.67,WSW,238,0.0,0.0,32,0.00,,FEW035,0.11,VWS V14.01,2013-09-20 23:52:00,
2013-09-20 18:58:00,61.0,31.7,29.67,WSW,240,0.0,0.0,33,0.00,,FEW035,0.11,VWS V14.01,2013-09-20 23:58:00,
2013-09-20 19:03:00,60.6,32.1,29.64,WSW,247,0.0,3.1,34,0.00,,CLR,0.11,VWS V14.01,2013-09-21 00:03:00,
2013-09-20 19:09:00,60.4,32.7,29.64,SSW,212,2.7,3.6,35,0.00,,CLR,0.11,VWS V14.01,2013-09-21 00:09:00,
2013-09-20 19:15:00,60.1,32.4,29.64,SSW,204,4.0,4.0,35,0.00,,CLR,0.11,VWS V14.01,2013-09-21 00:15:00,
2013-09-20 19:21:00,59.9,32.9,29.67,SSW,202,0.0,2.7,36,0.00,,CLR,0.11,VWS V14.01,2013-09-21 00:21:00,
2013-09-20 19:26:00,59.7,32.7,29.67,West,273,0.0,3.1,36,0.00,,CLR,0.11,VWS V14.01,2013-09-21 00:26:00,
2013-09-20 19:31:00,59.7,32.7,29.67,SW,231,0.0,0.0,36,0.00,,CLR,0.11,VWS V14.01,2013-09-21 00:31:00,
2013-09-20 19:36:00,59.5,33.3,29.67,SSW,196,0.0,3.6,37,0.00,,CLR,0.11,VWS V14.01,2013-09-21 00:36:00,
2013-09-20 19:41:00,59.4,33.8,29.67,SSW,196,3.6,3.6,38,0.00,,CLR,0.11,VWS V14.01,2013-09-21 00:41:00,
2013-09-20 19:47:00,59.4,33.8,29.67,SW,214,3.1,3.1,38,0.00,,CLR,0.11,VWS V14.01,2013-09-21 00:47:00,
2013-09-20 19:52:00,59.4,33.8,29.67,SW,232,3.6,5.4,38,0.00,,CLR,0.11,VWS V14.01,2013-09-21 00:52:00,
2013-09-20 19:58:00,59.4,33.8,29.67,SSW,211,0.0,0.0,38,0.00,,CLR,0.11,VWS V14.01,2013-09-21 00:58:00,
2013-09-20 20:04:00,59.2,34.3,29.67,WSW,238,0.0,3.6,39,0.00,,CLR,0.11,VWS V14.01,2013-09-21 01:04:00,
2013-09-20 20:09:00,59.0,34.1,29.67,WSW,253,0.0,0.0,39,0.00,,CLR,0.11,VWS V14.01,2013-09-21 01:09:00,
2013-09-20 20:14:00,59.0,36.6,29.67,SSW,208,3.6,4.9,43,0.00,,CLR,0.11,VWS V14.01,2013-09-21 01:14:00,
2013-09-20 20:19:00,59.0,37.1,29.67,NNW,334,2.2,4.5,44,0.00,,CLR,0.11,VWS V14.01,2013-09-21 01:19:00,
2013-09-20 20:25:00,59.2,38.4,29.67,WNW,282,6.3,6.3,46,0.00,,CLR,0.11,VWS V14.01,2013-09-21 01:25:00,
2013-09-20 20:31:00,59.2,38.4,29.67,NNE,33,0.0,5.4,46,0.00,,CLR,0.11,VWS V14.01,2013-09-21 01:31:00,
2013-09-20 20:36:00,59.0,38.8,29.67,WNW,301,4.0,4.0,47,0.00,,CLR,0.11,VWS V14.01,2013-09-21 01:36:00,
2013-09-20 20:41:00,58.8,39.2,29.67,NE,38,0.0,0.0,48,0.00,,CLR,0.11,VWS V14.01,2013-09-21 01:41:00,
2013-09-20 20:46:00,58.6,39.0,29.67,NNW,328,6.3,6.3,48,0.00,,CLR,0.11,VWS V14.01,2013-09-21 01:46:00,
2013-09-20 20:51:00,58.5,39.4,29.67,NNW,327,3.1,3.1,49,0.00,,CLR,0.11,VWS V14.01,2013-09-21 01:51:00,
2013-09-20 20:57:00,58.5,40.4,29.67,NW,316,2.7,5.4,51,0.00,,CLR,0.11,VWS V14.01,2013-09-21 01:57:00,
2013-09-20 21:02:00,58.5,41.4,29.70,North,7,0.0,0.0,53,0.00,,CLR,0.11,VWS V14.01,2013-09-21 02:02:00,
2013-09-20 21:07:00,58.5,41.9,29.70,NW,318,2.7,4.0,54,0.00,,CLR,0.11,VWS V14.01,2013-09-21 02:07:00,
2013-09-20 21:13:00,58.5,42.4,29.70,North,357,3.1,5.8,55,0.00,,CLR,0.11,VWS V14.01,2013-09-21 02:13:00,
2013-09-20 21:18:00,58.5,42.8,29.67,North,353,4.0,4.9,56,0.00,,CLR,0.11,VWS V14.01,2013-09-21 02:18:00,
2013-09-20 21:23:00,58.5,42.8,29.67,North,357,3.6,5.4,56,0.00,,CLR,0.11,VWS V14.01,2013-09-21 02:23:00,
2013-09-20 21:28:00,58.6,42.5,29.67,NW,308,5.4,11.0,55,0.00,,CLR,0.11,VWS V14.01,2013-09-21 02:28:00,
2013-09-20 21:34:00,58.5,41.4,29.67,North,357,3.1,9.6,53,0.00,,CLR,0.11,VWS V14.01,2013-09-21 02:34:00,
2013-09-20 21:39:00,58.5,41.4,29.67,NNE,24,6.3,8.7,53,0.00,,CLR,0.11,VWS V14.01,2013-09-21 02:39:00,
2013-09-20 21:45:00,58.3,41.7,29.67,NW,320,3.6,5.8,54,0.00,,CLR,0.11,VWS V14.01,2013-09-21 02:45:00,
2013-09-20 21:50:00,58.3,41.7,29.70,NNW,342,3.1,5.4,54,0.00,,CLR,0.11,VWS V14.01,2013-09-21 02:50:00,
2013-09-20 21:55:00,58.1,42.0,29.70,NW,326,0.0,5.4,55,0.00,,CLR,0.11,VWS V14.01,2013-09-21 02:55:00,
2013-09-20 22:00:00,58.1,42.5,29.70,North,4,0.0,2.7,56,0.00,,OVC060,0.11,VWS V14.01,2013-09-21 03:00:00,
2013-09-20 22:06:00,58.1,43.0,29.70,NNE,18,5.4,5.8,57,0.00,,OVC060,0.11,VWS V14.01,2013-09-21 03:06:00,
2013-09-20 22:11:00,58.1,43.4,29.70,North,8,3.6,5.8,58,0.00,,OVC060,0.11,VWS V14.01,2013-09-21 03:11:00,
2013-09-20 22:17:00,58.1,43.4,29.67,NNE,21,5.8,6.3,58,0.00,,OVC060,0.11,VWS V14.01,2013-09-21 03:17:00,
2013-09-20 22:22:00,58.1,43.4,29.67,North,353,5.4,8.1,58,0.00,,OVC060,0.11,VWS V14.01,2013-09-21 03:22:00,
2013-09-20 22:28:00,58.1,43.4,29.67,North,353,5.4,5.4,58,0.00,,OVC060,0.11,VWS V14.01,2013-09-21 03:28:00,
2013-09-20 22:33:00,57.9,43.2,29.67,NNW,332,4.9,5.4,58,0.00,,OVC060,0.11,VWS V14.01,2013-09-21 03:33:00,
2013-09-20 22:38:00,57.9,43.2,29.67,NNE,26,3.6,3.6,58,0.00,,OVC060,0.11,VWS V14.01,2013-09-21 03:38:00,
2013-09-20 22:43:00,57.9,43.2,29.67,North,353,2.7,3.6,58,0.00,,OVC060,0.11,VWS V14.01,2013-09-21 03:43:00,
2013-09-20 22:49:00,57.9,43.2,29.67,NNW,348,3.1,4.9,58,0.00,,OVC060,0.11,VWS V14.01,2013-09-21 03:49:00,
2013-09-20 22:54:00,57.7,43.1,29.67,NW,316,4.0,5.4,58,0.00,,OVC060,0.11,VWS V14.01,2013-09-21 03:54:00,
2013-09-20 22:59:00,57.6,42.9,29.67,North,353,2.2,4.0,58,0.00,,OVC060,0.11,VWS V14.01,2013-09-21 03:59:00,
2013-09-20 23:01:00,57.6,42.9,29.67,NW,305,3.1,3.6,58,0.00,,OVC047,0.11,VWS V14.01,2013-09-21 04:01:00,
2013-09-20 23:03:00,57.6,42.9,29.70,NNW,334,0.0,3.6,58,0.00,,OVC047,0.11,VWS V14.01,2013-09-21 04:03:00,
2013-09-20 23:05:00,57.6,42.9,29.70,NNE,24,3.6,3.6,58,0.00,,OVC047,0.11,VWS V14.01,2013-09-21 04:05:00,
2013-09-20 23:08:00,57.4,42.7,29.70,NW,323,3.1,5.4,58,0.00,,OVC047,0.11,VWS V14.01,2013-09-21 04:08:00,
2013-09-20 23:14:00,57.2,42.6,29.70,West,261,2.7,2.7,58,0.00,,OVC047,0.11,VWS V14.01,2013-09-21 04:14:00,
2013-09-20 23:20:00,57.0,42.4,29.70,NNW,332,3.6,4.5,58,0.00,,OVC047,0.11,VWS V14.01,2013-09-21 04:20:00,
2013-09-20 23:25:00,57.0,42.4,29.70,NNE,27,2.7,4.0,58,0.00,,OVC047,0.11,VWS V14.01,2013-09-21 04:25:00,
2013-09-20 23:30:00,56.8,42.7,29.70,NNW,340,3.6,6.3,59,0.00,,OVC047,0.11,VWS V14.01,2013-09-21 04:30:00,
2013-09-20 23:35:00,56.8,42.7,29.70,WNW,282,4.0,4.9,59,0.00,,OVC047,0.11,VWS V14.01,2013-09-21 04:35:00,
2013-09-20 23:41:00,56.8,43.1,29.70,NW,322,0.0,5.8,60,0.00,,OVC047,0.11,VWS V14.01,2013-09-21 04:41:00,
2013-09-20 23:46:00,56.7,43.0,29.70,NNW,346,4.0,6.3,60,0.00,,OVC047,0.11,VWS V14.01,2013-09-21 04:46:00,
2013-09-20 23:52:00,56.7,43.0,29.70,NW,314,6.3,6.3,60,0.00,,OVC047,0.11,VWS V14.01,2013-09-21 04:52:00,
2013-09-20 23:57:00,56.5,43.2,29.70,North,353,4.0,5.4,61,0.00,,OVC047,0.11,VWS V14.01,2013-09-21 04:57:00,